STARLINK-32179, 60734

Orbit data source: Space-Track

STARLINK-32179, 60734 is a payload satellite owned by SpaceX/Seattle (US) in LEO that was launched on Wed, 28 Aug 2024 UTC via an FALCON 9 launch vehicle from the Air Force Eastern Test Range (AFETR). Payload-class satellites include a variety of spacecraft equipped with specific instruments for various scientific and technological missions. These include communications satellites like Starlink; space stations such as the ISS; scientific satellites like the Hubble; Earth observation satellites from companies like Planet Labs, Umbra, and HawkEye 360; GPS; miniature CubeSats for education and research; and military/defense satellites.

Loading next visibility...
Identifier
60734, 2024-152Q
Orbit
LEO
Country
Flag of USUS
Related business
Manufacturer
SpaceX/Seattle
Mission
Operational Commercial Communications
Bus & Motor
STARLINK V2M, Unknown motor
Mass
730 kg wet, ~700 kg dry
Launch date (UTC)
2024-08-28 (1 year ago)
Launch vehicle
FALCON 9
Launch site
Air Force Eastern Test Range (AFETR)
Object type
Payload
Rocket body
Debris
Shape & HBR
Box + 2 Pan, 14.5 m
Radar Cross Section
36.964 m², Large (>1 m²)

Expand to show TLE details & history
Last TLE update: 16 hours ago

TLE from 16 hours ago
0 STARLINK-32179
1 60734U 24152Q   25242.82839103 -.00000805  00000-0 -15047-4 0  9999
2 60734  53.1597  75.3520 0001016 115.2792 244.8314 15.30198191 57498
Epoch: 2025-08-30T19:52Z
TLE epoch observation values (Epoch: 2025-08-30T19:52:52.984Z)
Latitude
-0.00006°
Longitude
157.87411°
Altitude
476.416 km
Speed
7.629 km/s
True Right ascension
05h 01m 24s
True Declination
0° 00' 00"
Sunlit
Object was in daylight at epoch
Visualization orbit readout
Latitude
Unknown
Longitude
Unknown
Altitude
Unknown
Speed
Unknown
Apparent Right ascension
Unknown
Apparent Declination
Unknown
Sunlit
N/A
Visualization observer readout
Local Sidereal Time
03:02:37
Azimuth
Unknown
Elevation
Unknown
Doppler factor
Unknown
Orbital elements
Apogee altitude
476.173 km
Perigee altitude
474.781 km
Semi-major axis
6,853.614 km
Eccentricity
0.0001
Inclination
53.1597°
RAAN
75.352°
Arg. of periapsis
115.2792°
True anomaly
244.82086°
Mean anomaly
244.8314°
Eccentric anomaly
244.82613°
Mean motion
3.82528 °/min
Orbital period
94.11 mins
BSTAR
-0.000015047
Loading maneuver chart data...
Computing Atmospheric mass density...
Loading historical data...
Loading historical data...
Loading historical data...
Loading historical data...
Loading historical data...
Loading historical data...
Loading historical data...

Documentation

Showing up to 5 results
|